| time (UTC) | temp C | wind direction | speed KPH | gust KPH | rain 1hr cm | rain 24hr cm | rain mn cm | humidity % | barometer mb |
| 20260831124603 | 22 | 0 | 0.0 | 3.2 | 0.00 | 0.66 | 0.25 | 86 | 1012.2 |
| 20260831123109 | 21 | 32 | 0.0 | 3.2 | 0.00 | 0.66 | 0.25 | 89 | 1012.5 |
| 20260831121615 | 21 | 20 | 0.0 | 3.2 | 0.00 | 0.66 | 0.25 | 90 | 1012.5 |
| 20260831120101 | 21 | 43 | 0.0 | 4.8 | 0.00 | 0.66 | 0.25 | 91 | 1012.4 |
| 20260831114602 | 21 | 46 | 1.6 | 6.4 | 0.00 | 0.66 | 0.25 | 91 | 1012.2 |
| 20260831113103 | 21 | 71 | 0.0 | 3.2 | 0.00 | 0.66 | 0.25 | 91 | 1012.5 |
| 20260831111605 | 21 | 0 | 1.6 | 4.8 | 0.00 | 0.66 | 0.25 | 91 | 1012.5 |
| 20260831110107 | 21 | 107 | 3.2 | 8.0 | 0.18 | 0.66 | 0.25 | 91 | 1012.6 |
| 20260831104604 | 21 | 123 | 6.4 | 14.5 | 0.20 | 0.69 | 0.25 | 92 | 1012.6 |
| 20260831103103 | 21 | 101 | 8.0 | 11.3 | 0.25 | 0.69 | 0.25 | 94 | 1012.8 |
| 20260831101604 | 21 | 0 | 0.0 | 3.2 | 0.25 | 0.69 | 0.25 | 94 | 1012.9 |
| 20260831100107 | 21 | 0 | 0.0 | 1.6 | 0.08 | 0.51 | 0.08 | 93 | 1013.0 |
| 20260831094632 | 21 | 69 | 3.2 | 6.4 | 0.05 | 0.56 | 0.05 | 93 | 1012.7 |
| 20260831093101 | 21 | 0 | 0.0 | 1.6 | 0.00 | 0.51 | 0.00 | 93 | 1012.8 |
| 20260831091617 | 21 | 0 | 0.0 | 0.0 | 0.00 | 0.51 | 0.00 | 93 | 1012.5 |
| 20260831084616 | 21 | 0 | 0.0 | 0.0 | 0.00 | 1.52 | 0.00 | 93 | 1012.8 |
| 20260831083102 | 21 | 0 | 0.0 | 1.6 | 0.00 | 1.52 | 0.00 | 94 | 1012.8 |
| 20260831081602 | 20 | 0 | 0.0 | 1.6 | 0.00 | 1.52 | 0.00 | 94 | 1012.7 |
| 20260831080100 | 21 | 0 | 0.0 | 3.2 | 0.00 | 1.52 | 0.00 | 93 | 1012.7 |
| 20260831074605 | 21 | 83 | 1.6 | 4.8 | 0.00 | 1.52 | 0.00 | 93 | 1012.9 |
| 20260831073102 | 20 | 79 | 0.0 | 3.2 | 0.00 | 1.52 | 0.00 | 94 | 1013.1 |
| 20260831071615 | 21 | 82 | 1.6 | 3.2 | 0.00 | 1.52 | 0.00 | 94 | 1013.4 |
| 20260831070104 | 20 | 73 | 0.0 | 3.2 | 0.00 | 1.52 | 0.00 | 94 | 1013.6 |
| 20260831064615 | 20 | 0 | 0.0 | 0.0 | 0.00 | 1.52 | 0.00 | 93 | 1014.0 |
| 20260831063110 | 21 | 0 | 0.0 | 0.0 | 0.00 | 1.52 | 0.00 | 93 | 1014.0 |
| 20260831061601 | 21 | 0 | 0.0 | 1.6 | 0.00 | 1.52 | 0.00 | 93 | 1014.1 |
| 20260831060111 | 21 | 0 | 0.0 | 0.0 | 0.00 | 1.52 | 0.00 | 92 | 1014.1 |
| 20260831054605 | 21 | 0 | 0.0 | 1.6 | 0.00 | 1.52 | 0.00 | 92 | 1014.1 |
| 20260831053102 | 21 | 0 | 0.0 | 3.2 | 0.00 | 1.52 | 0.00 | 91 | 1013.9 |
| 20260831051614 | 21 | 68 | 0.0 | 1.6 | 0.00 | 1.52 | 0.00 | 92 | 1013.7 |
| 20260831050111 | 21 | 0 | 0.0 | 0.0 | 0.00 | 1.52 | 0.00 | 91 | 1013.8 |
| 20260831044605 | 21 | 0 | 0.0 | 0.0 | 0.00 | 1.52 | 1.52 | 91 | 1013.7 |
| 20260831043105 | 21 | 0 | 0.0 | 1.6 | 0.00 | 1.52 | 1.52 | 90 | 1013.6 |
| 20260831041600 | 22 | 0 | 0.0 | 1.6 | 0.00 | 1.52 | 1.52 | 90 | 1013.5 |
| 20260831040101 | 22 | 45 | 0.0 | 1.6 | 0.00 | 1.52 | 1.52 | 90 | 1013.4 |
| 20260831034601 | 22 | 0 | 0.0 | 1.6 | 0.00 | 1.52 | 1.52 | 89 | 1013.5 |
| 20260831033059 | 22 | 70 | 1.6 | 6.4 | 0.00 | 1.52 | 1.52 | 90 | 1013.0 |
| 20260831031558 | 22 | 72 | 0.0 | 1.6 | 0.00 | 1.52 | 1.52 | 89 | 1013.3 |
| 20260831030105 | 22 | 0 | 0.0 | 1.6 | 0.00 | 1.52 | 1.52 | 88 | 1013.9 |
| 20260831024602 | 22 | 0 | 0.0 | 8.0 | 0.00 | 1.52 | 1.52 | 87 | 1014.1 |
| 20260831023110 | 22 | 283 | 3.2 | 9.7 | 0.00 | 1.52 | 1.52 | 87 | 1013.5 |
| 20260831021557 | 22 | 282 | 4.8 | 12.9 | 0.00 | 1.52 | 1.52 | 87 | 1014.0 |
| 20260831020115 | 22 | 239 | 4.8 | 11.3 | 0.00 | 1.52 | 1.52 | 87 | 1013.7 |
| 20260831014600 | 22 | 281 | 6.4 | 9.7 | 0.00 | 1.52 | 1.52 | 88 | 1013.8 |
| 20260831013100 | 22 | 274 | 3.2 | 8.0 | 0.00 | 1.52 | 1.52 | 89 | 1013.9 |
| 20260831011607 | 21 | 276 | 3.2 | 9.7 | 0.00 | 1.52 | 1.52 | 89 | 1014.2 |
| 20260831010106 | 21 | 274 | 4.8 | 8.0 | 0.00 | 1.52 | 1.52 | 89 | 1014.2 |
| 20260831004604 | 21 | 250 | 3.2 | 4.8 | 0.00 | 1.52 | 1.52 | 90 | 1013.6 |
| 20260831003105 | 21 | 293 | 3.2 | 4.8 | 0.00 | 1.52 | 1.52 | 91 | 1013.6 |
| 20260831001602 | 21 | 274 | 1.6 | 4.8 | 0.00 | 1.52 | 1.52 | 91 | 1013.5 |
| 20260831000105 | 21 | 278 | 1.6 | 4.8 | 0.00 | 1.52 | 1.52 | 91 | 1013.3 |
| 20260830234615 | 21 | 0 | 0.0 | 3.2 | 0.00 | 1.52 | 1.52 | 91 | 1013.2 |
| 20260830233105 | 22 | 278 | 0.0 | 1.6 | 0.00 | 1.52 | 1.52 | 91 | 1013.1 |
| 20260830231611 | 22 | 0 | 0.0 | 4.8 | 0.00 | 1.52 | 1.52 | 90 | 1013.0 |
| 20260830230105 | 22 | 231 | 1.6 | 4.8 | 0.00 | 1.52 | 1.52 | 91 | 1013.1 |
| 20260830224609 | 22 | 278 | 1.6 | 4.8 | 0.03 | 1.52 | 1.52 | 90 | 1013.2 |
| 20260830223103 | 22 | 280 | 3.2 | 6.4 | 0.03 | 1.52 | 1.52 | 89 | 1013.1 |
| 20260830221605 | 22 | 284 | 1.6 | 8.0 | 0.03 | 1.52 | 1.52 | 89 | 1013.2 |
| 20260830220115 | 22 | 253 | 3.2 | 9.7 | 0.05 | 1.52 | 1.52 | 90 | 1013.1 |
| 20260830214558 | 22 | 277 | 3.2 | 6.4 | 0.05 | 1.47 | 1.47 | 91 | 1013.2 |
| 20260830213126 | 21 | 273 | 1.6 | 6.4 | 0.13 | 1.47 | 1.47 | 92 | 1013.2 |
| 20260830211602 | 21 | 274 | 4.8 | 9.7 | 0.13 | 1.47 | 1.47 | 92 | 1013.1 |
| 20260830210106 | 21 | 246 | 3.2 | 8.0 | 0.13 | 1.47 | 1.47 | 92 | 1013.0 |
| 20260830204602 | 21 | 245 | 0.0 | 3.2 | 0.10 | 1.47 | 1.45 | 92 | 1013.3 |
| 20260830203110 | 21 | 0 | 0.0 | 4.8 | 0.03 | 1.42 | 1.37 | 92 | 1013.4 |
| 20260830201605 | 21 | 274 | 4.8 | 9.7 | 0.08 | 1.42 | 1.37 | 91 | 1013.4 |
| 20260830200104 | 21 | 285 | 3.2 | 9.7 | 0.05 | 1.40 | 1.32 | 90 | 1013.5 |
| 20260830194613 | 21 | 278 | 4.8 | 16.1 | 0.23 | 1.40 | 1.32 | 89 | 1013.7 |
| 20260830193102 | 22 | 252 | 6.4 | 14.5 | 0.23 | 1.40 | 1.32 | 87 | 1013.9 |
| 20260830191601 | 22 | 264 | 4.8 | 14.5 | 0.18 | 1.32 | 1.30 | 85 | 1014.0 |
| 20260830190101 | 23 | 257 | 4.8 | 12.9 | 0.18 | 1.32 | 1.30 | 83 | 1013.9 |
| 20260830184614 | 25 | 271 | 11.3 | 27.4 | 0.00 | 1.17 | 1.12 | 73 | 1013.6 |
| 20260830183103 | 26 | 255 | 11.3 | 17.7 | 0.00 | 1.17 | 1.12 | 70 | 1013.3 |
| 20260830181606 | 26 | 249 | 9.7 | 20.9 | 0.00 | 1.17 | 1.12 | 69 | 1013.3 |
| 20260830180106 | 27 | 284 | 14.5 | 24.1 | 0.00 | 1.17 | 1.12 | 64 | 1013.0 |
| 20260830174603 | 27 | 293 | 9.7 | 20.9 | 0.00 | 1.17 | 1.12 | 63 | 1012.8 |
| 20260830173100 | 28 | 278 | 6.4 | 14.5 | 0.00 | 1.17 | 1.12 | 61 | 1012.4 |
| 20260830171605 | 28 | 260 | 8.0 | 19.3 | 0.00 | 1.17 | 1.12 | 59 | 1012.5 |
| 20260830164604 | 28 | 240 | 9.7 | 19.3 | 0.00 | 1.17 | 1.12 | 60 | 1012.5 |
| 20260830163103 | 28 | 264 | 8.0 | 12.9 | 0.00 | 1.17 | 1.12 | 60 | 1012.6 |
| 20260830161627 | 27 | 257 | 6.4 | 12.9 | 0.00 | 1.17 | 1.12 | 62 | 1012.5 |
| 20260830160103 | 27 | 262 | 6.4 | 11.3 | 0.00 | 1.17 | 1.12 | 64 | 1012.7 |
| 20260830154606 | 27 | 273 | 1.6 | 8.0 | 0.00 | 1.17 | 1.12 | 66 | 1012.8 |
| 20260830153106 | 26 | 260 | 6.4 | 14.5 | 0.00 | 1.17 | 1.12 | 66 | 1012.9 |
| 20260830151612 | 26 | 252 | 3.2 | 9.7 | 0.00 | 1.17 | 1.12 | 69 | 1012.7 |
| 20260830144627 | 24 | 249 | 4.8 | 16.1 | 0.00 | 1.17 | 1.12 | 73 | 1012.6 |
| 20260830143110 | 24 | 0 | 4.8 | 9.7 | 0.00 | 1.17 | 1.12 | 73 | 1012.4 |
| 20260830141559 | 23 | 262 | 1.6 | 6.4 | 0.00 | 1.17 | 1.12 | 77 | 1012.5 |
| 20260830134601 | 22 | 240 | 1.6 | 6.4 | 0.00 | 1.17 | 1.12 | 82 | 1012.7 |
| 20260830133104 | 22 | 288 | 1.6 | 6.4 | 0.00 | 1.17 | 1.12 | 83 | 1012.9 |
| 20260830131601 | 21 | 271 | 1.6 | 4.8 | 0.00 | 1.17 | 1.12 | 85 | 1013.2 |
| 20260830130113 | 21 | 0 | 0.0 | 3.2 | 0.00 | 1.17 | 1.12 | 88 | 1013.3 |